METEOR 2-7 DEB

Satellite information

Favourite Embed

Satellite Type and Status

DEBRISIN ORBIT

Key statistics

Satellite METEOR 2-7 DEB at a glance.

Uptime

16285

Days in orbit

Revolutions

≈ 14.6

Per day

Orbit

LEO

Low Earth Orbit

Inclination

81.3

Latest

Satellite identification and parameters

Extended collection of information and parameters for METEOR 2-7 DEB.

Object identification

Identified? True

Debris? True

Object name: METEOR 2-7 DEB

International designator: 1981-043F

Object number (NORAD): 28389

Object ID (CCSDS): 28389

Country: COMMONWEALTH OF INDEPENDENT STATES (CIS)

Current information (Y/N): Y

RCS size: SMALL

Orbital parameters

Period: 98.738 minutes

Inclination: 81.2687 deg

SMA: 7076.443 km

Apoapsis: 717.853 km

Periapsis: 678.763 km

RAAN: 116.6981 deg

Eccentricy: 0.002762

Argument of periapsis: 213.9699 deg

Mean anomaly: 145.9731 deg

Mean motion: 14.58412004 rev/day

Mean motion (dot): 0.00020739 rev/day2

B* drag term: 0.0044384 1/REarth

Two-line elements (TLE)

Creation date: Dec. 12, 2025, 7:26 a.m.

Reference frame: TEME

Reference center: EARTH

Epoch: Dec. 10, 2025, 6:53 p.m. UTC

TLE line 0: 0 METEOR 2-7 DEB

TLE line 1: 1 28389U 81043F 25344.78727458 .00020739 00000-0 44384-2 0 9998

TLE line 2: 2 28389 81.2687 116.6981 0027620 213.9699 145.9731 14.58412004100507

Live tracking on map

Real-time ground track for satellite METEOR 2-7 DEB.

In-orbit conjunctions

A list of the most updated potential collisions computed for object METEOR 2-7 DEB.

Target Orbit TCA Probability of collision Miss distance Type
MONITOR-E/SL-19 SSO 2025-08-26 18:56:34 0.0009943243 493.0 (m) PAYLOAD
CZ-4 DEB SSO 2025-05-22 15:29:47 0.0006840491 27.0 (m) DEBRIS
CZ-4B R/B SSO 2024-11-08 08:07:15 0.0001229936 434.0 (m) ROCKET BODY

Associated space launch

Second generation soviet meteorological satellite

METEOR 2-7 DEB was lifted into orbit during the mission ‘Vostok 8A92M | Meteor-2 7’, on board a Vostok 8A92M space rocket.

The launch took place on May 14, 1981, 9:45 p.m. from 43/3 (43L).

For more information about the launch, click the button.

Launch to space Vostok 8A92M | Meteor-2 7
Vostok 8A92M | Meteor-2 7

Agency: N/A

Status: Launch Successful

Launch date: May 14, 1981, 9:45 p.m. UTC

Rocket: Vostok 8A92M

Launch pad: 43/3 (43L)

Location: Plesetsk Cosmodrome, Russian Federation

...

Latest news about this satellite

There are no fresh news available about this satellite. Check back as we update our databases every day.


Newsletter sign-up

Weekly statistics, charts and insights to help you stay on top of the space industry.